EW3770 Weather Reports


time (UTC)temp
C
wind
direction
speed
KPH
gust
KPH
rain 1hr
cm
rain 24hr
cm
rain mn
cm
humidity
%
barometer
mb
20260508223624 25 337 12.9 27.4 0.00 0.00 0.00 20 1027.4
20260508222703 25 345 9.7 22.5 0.00 0.00 0.00 19 1027.4
20260508221803 25 323 8.0 20.9 0.00 0.00 0.00 21 1027.4
20260508220903 25 351 9.7 24.1 0.00 0.00 0.00 21 1027.4
20260508220003 24 353 11.3 24.1 0.00 0.00 0.00 21 1027.4
20260508215403 25 324 12.9 24.1 0.00 0.00 0.00 20 1027.4
20260508214503 24 349 9.7 24.1 0.00 0.00 0.00 21 1027.4
20260508213603 25 344 9.7 22.5 0.00 0.00 0.00 20 1027.4
20260508212703 24 3 9.7 20.9 0.00 0.00 0.00 20 1027.4
20260508211803 24 21 11.3 24.1 0.00 0.00 0.00 21 1027.4
20260508210903 24 353 9.7 25.7 0.00 0.00 0.00 20 1027.4
20260508210003 24 347 11.3 24.1 0.00 0.00 0.00 22 1027.4
20260508205403 24 353 9.7 22.5 0.00 0.00 0.00 22 1027.4
20260508204503 23 10 9.7 27.4 0.00 0.00 0.00 22 1027.4
20260508203603 23 20 12.9 25.7 0.00 0.00 0.00 22 1027.4
20260508202724 23 22 12.9 24.1 0.00 0.00 0.00 21 1027.4
20260508201803 23 358 9.7 25.7 0.00 0.00 0.00 23 1027.4
20260508200903 23 346 14.5 25.7 0.00 0.00 0.00 22 1027.4
20260508200003 23 340 16.1 29.0 0.00 0.00 0.00 21 1027.4
20260508195403 23 338 12.9 29.0 0.00 0.00 0.00 21 1027.4
20260508194503 23 348 12.9 27.4 0.00 0.00 0.00 22 1027.4
20260508193603 23 341 11.3 27.4 0.00 0.00 0.00 23 1027.4
20260508192703 23 346 11.3 27.4 0.00 0.00 0.00 21 1027.4
20260508191803 23 342 16.1 29.0 0.00 0.00 0.00 22 1027.4
20260508190903 23 356 11.3 30.6 0.00 0.00 0.00 22 1027.4
20260508190004 23 344 14.5 30.6 0.00 0.00 0.00 22 1027.4
20260508185403 23 339 14.5 30.6 0.00 0.00 0.00 23 1027.4
20260508184504 23 330 14.5 32.2 0.00 0.00 0.00 25 1027.4
20260508183603 23 335 14.5 38.6 0.00 0.00 0.00 22 1027.4
20260508182703 23 332 14.5 29.0 0.00 0.00 0.00 24 1027.4
20260508181824 23 333 12.9 30.6 0.00 0.00 0.00 23 1027.4
20260508180903 23 332 16.1 29.0 0.00 0.00 0.00 24 1027.4
20260508180003 23 329 14.5 29.0 0.00 0.00 0.00 24 1027.4
20260508175403 23 347 12.9 25.7 0.00 0.00 0.00 24 1027.4
20260508174503 22 33 8.0 22.5 0.00 0.00 0.00 27 1027.4
20260508173603 22 12 8.0 17.7 0.00 0.00 0.00 27 1027.4
20260508172703 22 320 8.0 19.3 0.00 0.00 0.00 29 1027.4
20260508171803 22 342 8.0 17.7 0.00 0.00 0.00 29 1027.4
20260508170903 22 7 8.0 17.7 0.00 0.00 0.00 31 1027.4
20260508170024 21 12 9.7 20.9 0.00 0.00 0.00 30 1027.4
20260508165403 22 11 8.0 20.9 0.00 0.00 0.00 29 1027.4
20260508164524 22 17 6.4 16.1 0.00 0.00 0.00 28 1027.4
20260508163603 22 31 4.8 16.1 0.00 0.00 0.00 30 1027.4
20260508162703 21 19 3.2 14.5 0.00 0.00 0.00 32 1027.4
20260508161803 21 11 3.2 12.9 0.00 0.00 0.00 32 1027.4
20260508160924 22 27 4.8 12.9 0.00 0.00 0.00 31 1027.4
20260508160003 22 322 3.2 8.0 0.00 0.00 0.00 30 1027.4
20260508155403 22 146 1.6 8.0 0.00 0.00 0.00 31 1027.4
20260508154503 22 145 0.0 3.2 0.00 0.00 0.00 32 1027.4
20260508153603 22 145 0.0 4.8 0.00 0.00 0.00 35 1027.4
20260508152703 22 145 0.0 4.8 0.00 0.00 0.00 35 1027.4
20260508151803 21 145 0.0 3.2 0.00 0.00 0.00 40 1027.4
20260508150903 21 146 0.0 3.2 0.00 0.00 0.00 40 1027.4
20260508150004 20 146 0.0 3.2 0.00 0.00 0.00 40 1027.4
20260508145403 20 145 1.6 6.4 0.00 0.00 0.00 39 1027.4
20260508144503 20 175 0.0 8.0 0.00 0.00 0.00 38 1027.4
20260508143603 20 211 0.0 1.6 0.00 0.00 0.00 42 1027.4
20260508142703 19 211 0.0 1.6 0.00 0.00 0.00 41 1027.4
20260508141803 18 211 0.0 1.6 0.00 0.00 0.00 41 1027.4
20260508140924 18 360 0.0 1.6 0.00 0.00 0.00 40 1027.4
20260508140003 18 0 0.0 0.0 0.00 0.00 0.00 41 1027.4
20260508135403 17 0 0.0 0.0 0.00 0.00 0.00 44 1027.4
20260508134503 15 360 0.0 1.6 0.00 0.00 0.00 47 1027.4
20260508133603 13 360 0.0 1.6 0.00 0.00 0.00 52 1027.4
20260508132703 12 0 0.0 0.0 0.00 0.00 0.00 56 1027.4
20260508131824 11 0 0.0 0.0 0.00 0.00 0.00 59 1027.4
20260508130903 10 0 0.0 0.0 0.00 0.00 0.00 59 1027.4
20260508130003 10 350 0.0 3.2 0.00 0.00 0.00 59 1027.4
20260508125403 10 0 0.0 0.0 0.00 0.00 0.00 59 1027.4
20260508124524 10 0 0.0 0.0 0.00 0.00 0.00 59 1027.4
20260508123603 10 360 0.0 1.6 0.00 0.00 0.00 59 1027.4
20260508122703 10 0 0.0 0.0 0.00 0.00 0.00 59 1027.4
20260508121803 10 0 0.0 0.0 0.00 0.00 0.00 60 1027.4
20260508120924 10 0 0.0 0.0 0.00 0.00 0.00 60 1027.4
20260508120003 10 360 0.0 3.2 0.00 0.00 0.00 58 1027.4
20260508115403 10 360 0.0 6.4 0.00 0.00 0.00 58 1027.4
20260508114524 10 360 0.0 3.2 0.00 0.00 0.00 56 1027.4
20260508113603 10 0 0.0 0.0 0.00 0.00 0.00 56 1027.4
20260508112703 11 0 0.0 0.0 0.00 0.00 0.00 54 1027.4
20260508111803 11 360 0.0 4.8 0.00 0.00 0.00 53 1027.4
20260508110903 11 329 0.0 1.6 0.00 0.00 0.00 52 1027.4
20260508110003 11 0 0.0 0.0 0.00 0.00 0.00 51 1027.4
20260508105403 11 356 0.0 3.2 0.00 0.00 0.00 51 1027.4
20260508104503 11 357 0.0 3.2 0.00 0.00 0.00 53 1027.4
20260508103603 11 0 0.0 0.0 0.00 0.00 0.00 53 1027.4
20260508102703 11 0 0.0 0.0 0.00 0.00 0.00 54 1027.4
20260508101803 11 0 0.0 0.0 0.00 0.00 0.00 54 1027.4
20260508100903 11 0 0.0 0.0 0.00 0.00 0.00 54 1027.4
20260508100003 11 311 0.0 3.2 0.00 0.00 0.00 55 1027.4
20260508095403 11 211 1.6 4.8 0.00 0.00 0.00 56 1027.4
20260508094524 11 0 0.0 0.0 0.00 0.00 0.00 57 1027.4
20260508093603 11 360 0.0 1.6 0.00 0.00 0.00 57 1027.4
20260508092724 11 359 0.0 3.2 0.00 0.00 0.00 56 1027.4
20260508091803 11 360 0.0 3.2 0.00 0.00 0.00 55 1027.4
20260508090903 11 0 0.0 0.0 0.00 0.00 0.00 54 1027.4
20260508090003 12 0 0.0 0.0 0.00 0.00 0.00 54 1027.4
20260508085403 12 0 0.0 0.0 0.00 0.00 0.00 53 1027.4
20260508084503 12 360 0.0 1.6 0.00 0.00 0.00 51 1027.4
20260508083603 13 360 0.0 4.8 0.00 0.00 0.00 48 1027.4
20260508082703 13 357 0.0 3.2 0.00 0.00 0.00 47 1027.4
20260508081803 13 360 0.0 3.2 0.00 0.00 0.00 48 1027.4
20260508080903 13 360 1.6 6.4 0.00 0.00 0.00 47 1027.4
20260508080024 13 360 3.2 6.4 0.00 0.00 0.00 47 1027.4
20260508075404 12 360 3.2 6.4 0.00 0.00 0.00 47 1027.4
20260508074503 13 360 3.2 6.4 0.00 0.00 0.00 48 1027.4
20260508073603 13 360 1.6 4.8 0.00 0.00 0.00 48 1027.4
20260508072703 13 358 1.6 3.2 0.00 0.00 0.00 48 1027.4
20260508071824 13 359 1.6 4.8 0.00 0.00 0.00 49 1027.4
20260508070903 13 0 0.0 0.0 0.00 0.00 0.00 49 1027.4
20260508070003 13 0 0.0 0.0 0.00 0.00 0.00 48 1027.4
20260508065403 13 0 0.0 0.0 0.00 0.00 0.00 48 1027.4
20260508064503 14 0 0.0 0.0 0.00 0.00 0.00 46 1027.4
20260508063603 14 0 0.0 0.0 0.00 0.00 0.00 45 1027.4
20260508062704 14 0 0.0 0.0 0.00 0.00 0.00 45 1027.4
20260508061803 14 0 0.0 0.0 0.00 0.00 0.00 45 1027.4
20260508060903 14 355 0.0 3.2 0.00 0.00 0.00 45 1027.4
20260508060004 15 360 0.0 3.2 0.00 0.00 0.00 45 1027.4
20260508055403 15 0 0.0 0.0 0.00 0.00 0.00 44 1027.4
20260508054503 15 0 0.0 0.0 0.00 0.00 0.00 44 1027.4
20260508053603 15 0 0.0 0.0 0.00 0.00 0.00 43 1027.4
20260508052703 16 0 0.0 0.0 0.00 0.00 0.00 41 1027.4
20260508051803 16 0 0.0 0.0 0.00 0.00 0.00 40 1027.4
20260508050903 16 360 0.0 6.4 0.00 0.00 0.00 39 1027.4
20260508050004 16 360 3.2 8.0 0.00 0.00 0.00 38 1027.4
20260508045403 16 360 3.2 8.0 0.00 0.00 0.00 38 1027.4
20260508044503 16 360 4.8 8.0 0.00 0.00 0.00 38 1027.4
20260508043603 16 360 4.8 6.4 0.00 0.00 0.00 38 1027.4
20260508042703 17 360 4.8 8.0 0.00 0.00 0.00 37 1027.4
20260508041803 17 360 3.2 6.4 0.00 0.00 0.00 37 1027.4
20260508040903 17 360 3.2 8.0 0.00 0.00 0.00 37 1027.4
20260508040024 17 346 1.6 6.4 0.00 0.00 0.00 37 1027.4
20260508035403 18 355 1.6 6.4 0.00 0.00 0.00 36 1027.4
20260508034503 18 360 1.6 6.4 0.00 0.00 0.00 35 1027.4
20260508033603 18 360 0.0 4.8 0.00 0.00 0.00 34 1027.4
20260508032703 18 360 0.0 1.6 0.00 0.00 0.00 34 1027.4
20260508031803 19 360 0.0 3.2 0.00 0.00 0.00 34 1027.4
20260508030903 20 0 0.0 0.0 0.00 0.00 0.00 31 1027.4
20260508030004 21 0 0.0 0.0 0.00 0.00 0.00 29 1027.4
20260508025403 21 0 0.0 0.0 0.00 0.00 0.00 28 1027.4
20260508024503 22 360 0.0 1.6 0.00 0.00 0.00 29 1027.4
20260508023603 22 0 0.0 0.0 0.00 0.00 0.00 28 1027.4
20260508022724 22 360 0.0 1.6 0.00 0.00 0.00 26 1027.4
20260508021803 23 0 0.0 0.0 0.00 0.00 0.00 27 1027.4
20260508020924 23 0 0.0 0.0 0.00 0.00 0.00 25 1027.4
20260508020004 23 360 0.0 1.6 0.00 0.00 0.00 25 1027.4
20260508015403 23 360 0.0 3.2 0.00 0.00 0.00 24 1027.4
20260508014525 23 91 3.2 6.4 0.00 0.00 0.00 23 1027.4
20260508013603 23 87 3.2 9.7 0.00 0.00 0.00 23 1027.4
20260508012703 23 88 3.2 9.7 0.00 0.00 0.00 22 1027.4
20260508011803 23 86 1.6 8.0 0.00 0.00 0.00 23 1027.4
20260508010903 23 77 4.8 11.3 0.00 0.00 0.00 22 1027.4
20260508010004 23 67 1.6 3.2 0.00 0.00 0.00 22 1027.4
20260508005403 23 64 0.0 3.2 0.00 0.00 0.00 22 1027.4
20260508004503 23 69 1.6 6.4 0.00 0.00 0.00 24 1027.4
20260508003603 23 57 3.2 9.7 0.00 0.00 0.00 23 1027.4
20260508002724 23 46 3.2 9.7 0.00 0.00 0.00 23 1027.4
20260508001803 23 21 4.8 12.9 0.00 0.00 0.00 23 1027.4
20260508000903 23 19 6.4 16.1 0.00 0.00 0.00 23 1027.4
20260508000003 23 48 4.8 14.5 0.00 0.00 0.00 22 1027.4
20260507235403 23 50 4.8 16.1 0.00 0.00 0.00 22 1027.4
20260507234503 24 35 3.2 11.3 0.00 0.00 0.00 21 1027.4
20260507233603 24 17 3.2 12.9 0.00 0.00 0.00 22 1027.4
20260507232703 24 75 3.2 9.7 0.00 0.00 0.00 22 1027.4
20260507231803 24 60 3.2 8.0 0.00 0.00 0.00 22 1027.4
20260507230903 24 28 4.8 20.9 0.00 0.00 0.00 23 1027.4
20260507230024 24 44 8.0 19.3 0.00 0.00 0.00 23 1027.4
20260507225403 24 35 8.0 19.3 0.00 0.00 0.00 22 1027.4
20260507224524 24 28 6.4 17.7 0.00 0.00 0.00 22 1027.4